Location: Home
(42.5358°N, 72.7383°W)
Time: 21:33:23
(UTC-05:00)

Altair - Pass Details

Date: 07 December 2021
Orbit: 1501 x 1683 km, 47.2° (Epoch: 26 January)

Event Time Altitude Azimuth Distance (km) Brightness Sun altitude
Rises 21:13:19 0° 296° (WNW) 4,666 10.6 -53.3°
Reaches altitude 10° 21:16:34 10° 289° (WNW) 3,669 9.9 -53.8°
Enters shadow 21:19:48 23° 277° (W) 2,779 9.1 -54.4°
